Flag for U.S.A. Weather past 2 weeks in Fort Wayne, Indiana, U.S.A.

Now
49 °F

Passing clouds.


Feels Like: 46 °F
Forecast: 42 / 63 °F
Wind: 6 mph from Northeast

Location: Fort Wayne International Airport


UV Index: 0 (Low)

Visibility: 10 mi


Pressure: 30.11 "Hg

Humidity: 43%

Dew point: 27 °F

Location of Fort WayneLocation

Historic Weather in Fort Wayne

°F

Fort Wayne temperature yesterday

Maximum temperature yesterday: 59 °F (at 1:54 AM)
Minimum temperature yesterday: 41 °F (at 11:54 PM)
Average temperature yesterday: 52 °F

Past Weeks' High & Low Weather Summary

 TemperatureHumidityPressure
High79 °F (Apr 21, 3:54 PM)97% (Apr 11, 7:54 AM)30.45 "Hg (Apr 11, 7:54 AM)
Low23 °F (Apr 16, 4:54 AM)22% (Apr 20, 4:54 PM)29.46 "Hg (Apr 14, 5:54 AM)
Average51 °F58%30.05 "Hg
* Reported Apr 8 9:54 PM — Apr 23 9:54 PM, Fort Wayne, Weather by CustomWeather, © 2014

Note: Actual official high and low records may vary slightly from our data, if they occured in-between our weather recording intervals... More about our weather records

Advertising

Historic Weather Conditions — Data for Previous 24 hours

 ConditionsComfort  
Time TempWeatherWind HumidityBarometerVisibility
9:54 PM
Apr 23
51 °FMostly cloudy.6 mph41%30.11 "Hg10 mi
8:54 PM51 °FPartly sunny.3 mph41%30.10 "Hg10 mi
7:54 PM53 °FPartly sunny.6 mph37%30.09 "Hg10 mi
6:54 PM59 °FPartly sunny.7 mph31%30.08 "Hg10 mi
5:54 PM58 °FScattered clouds.5 mph28%30.08 "Hg10 mi
4:54 PM58 °FScattered clouds.5 mph33%30.09 "Hg10 mi
3:54 PM58 °FPassing clouds.7 mph35%30.10 "Hg10 mi
2:54 PM55 °FPassing clouds.3 mph35%30.11 "Hg10 mi
1:54 PM54 °FPassing clouds.7 mph41%30.11 "Hg10 mi
12:54 PM51 °FPassing clouds.6 mph46%30.12 "Hg10 mi
11:54 AM48 °FPassing clouds.7 mph52%30.14 "Hg10 mi
10:54 AM45 °FPassing clouds.6 mph56%30.14 "Hg10 mi
9:54 AM42 °FPassing clouds.10 mph60%30.12 "Hg10 mi
8:54 AM39 °FPassing clouds.13 mph67%30.12 "Hg10 mi
7:54 AM36 °FSunny.10 mph73%30.10 "Hg10 mi
6:54 AM34 °FClear.10 mph76%30.09 "Hg10 mi
5:54 AM34 °FClear.6 mph73%30.06 "Hg10 mi
4:54 AM36 °FClear.8 mph70%30.04 "Hg10 mi
3:54 AM36 °FClear.6 mph70%30.03 "Hg10 mi
2:54 AM38 °FClear.9 mph65%30.02 "Hg10 mi
1:54 AM39 °FClear.10 mph67%30.01 "Hg10 mi
12:54 AM39 °FClear.8 mph70%30.01 "Hg10 mi
11:54 PM
Apr 22
41 °FClear.6 mph62%29.99 "Hg10 mi
Weather by CustomWeather, © 2014

See weather overview